SCP
0 0 0 0 0 0 0 0 0 0 0 0 0 0 0 0 0 0 0 0 0 0 0 0 0 0 0 0 0 0 0 0 0 0 0 0 0 0 0 0 0 0 0
0 0 0 0 0 0 0 0 0 0 0 0 0 0 0 0 0 0 0 0 0 0 0 0 0 0 0 0 0 0 0 0 0 0 0 0 0 0 0 0 0 0 0
0 0 0 0 0 0 0 0 0 0 0 0 0 0 0 0 0 0 0 0 0 0 0 0 0 0 0 0 0 0 0 0 0 0 0 0 0 0 0 0 0 0 0
0 0 0 0 0 0 0 0 0 0 0 0 0 0 0 0 0 0 0 0 0 0 0 0 0 0 0 0 0 0 0 0 0 0 0 0 0 0 0 0 0 0 0
0 0 0 0 0 0 0 0 0 0 0 0 0 0 0 0 0 0 0 0 0 0 0 0 0 0 0 0 0 0 0 0 0 0 0 0 0 0 0 0 0 0 0
0 0 0 0 0 0 0 0 0 0 0 0 0 0 0 0 0 0 0 0 0 0 0 0 0 0 0 0 0 0 0 0 0 0 0 0 0 0 0 0 0 0 0
0 0 0 0 0 0 0 0 0 0 0 0 0 0 0 0 0 0 0 0 0 0 0 0 0 0 0 0 0 0 0 0 0 0 0 0 0 0 0 0 0 0 0
0 0 0 0 0 0 0 0 0 0 0 0 0 0 0 0 0 0 0 0 0 0 0 0 0 0 0 0 0 0 0 0 0 0 0 0 0 0 0 0 0 0 0
0 0 0 0 0 0 0 0 0 0 0 0 0 0 0 0 0 0 0 0 0 0 0 0 0 0 0 0 0 0 0 0 0 0 0 0 0 0 0 0 0 0 0
0 0 0 0 0 0 0 0 0 0 0 0 0 0 0 0 0 0 0 0 0 0 0 0 0 0 0 0 0 0 0 0 0 0 0 0 0 0 0 0 0 0 0
0 0 0 0 0 0 0 0 0 0 0 0 0 0 0 0 0 0 0 0 0 0 0 0 0 0 0 0 0 0 0 0 0 0 0 0 0 0 0 0 0 0 0
0 0 0 0 0 0 0 0 0 0 0 0 0 0 0 0 0 0 0 0 0 0 0 0 0 0 0 0 0 0 0 0 0 0 0 0 0 0 0 0 0 0 0
0 0 0 0 0 0 0 0 0 0 0 0 0 0 0 0 0 0 0 0 0 0 0 0 0 0 0 0 0 0 0 0 0 0 0 0 0 0 0 0 0 0 0
0 0 0 0 0 0 0 0 0 0 0 0 0 0 0 0 0 0 0 0 0 0 0 0 0 0 0 0 0 0 0 0 0 0 0 0 0 0 0 0 0 0 0
0 0 0 0 0 0 0 0 0 0 0 0 0 0 0 0 0 0 0 0 0 0 0 0 0 0 0 0 0 0 0 0 0 0 0 0 0 0 0 0 0 0 0
0 0 0 0 0 0 0 0 0 0 0 0 0 0 0 0 0 0 0 0 0 0 0 0 0 0 0 0 0 0 0 0 0 0 0 0 0 0 0 0 0 0 0
0 0 0 0 0 0 0 0 0 0 0 0 0 0 0 0 0 0 0 0 0 0 0 0 0 0 0 0 0 0 0 0 0 0 0 0 0 0 0 0 0 0 0
0 0 0 0 0 0 0 0 0 0 0 0 0 0 0 0 0 0 0 0 0 0 0 0 0 0 0 0 0 0 0 0 0 0 0 0 0 0 0 0 0 0 0
0 0 0 0 0 0 0 0 0 0 0 0 0 0 0 0 0 0 0 0 0 0 0 0 0 0 0 0 0 0 0 0 0 0 0 0 0 0 0 0 0 0 0
0 0 0 0 0 0 0 0 0 0 0 0 0 0 0 0 0 0 0 0 0 0 0 0 0 0 0 0 0 0 0 0 0 0 0 0 0 0 0 0 0 0 0
0 0 0 0 0 0 0 0 0 0 0 0 0 0 0 0 0 0 0 0 0 0 0 0 0 0 0 0 0 0 0 0 0 0 0 0 0 0 0 0 0 0 0
0 0 0 0 0 0 0 0 0 0 0 0 0 0 0 0 0 0 0 0 0 0 0 0 0 0 0 0 0 0 0 0 0 0 0 0 0 0 0 0 0 0 0
0 0 0 0 0 0 0 0 0 0 0 0 0 0 0 0 0 0 0 0 0 0 0 0 0 0 0 0 0 0 0 0 0 0 0 0 0 0 0 0 0 0 0
0 0 0 0 0 0 0 0 0 0 0 0 0 0 0 0 0 0 0 0 0 0 0 0 0 0 0 0 0 0 0 0 0 0 0 0 0 0 0 0 0 0 0
0 0 0 0 0 0 0 0 0 0 0 0 0 0 0 0 0 0 0 0 0 0 0 0 0 0 0 0 0 0 0 0 0 0 0 0 0 0 0 0 0 0 0
0 0 0 0 0 0 0 0 0 0 0 0 0 0 0 0 0 0 0 0 0 0 0 0 0 0 0 0 0 0 0 0 0 0 0 0 0 0 0 0 0 0 0
Wind_Speed
8 8 8 6 8 10 12 13 13 14 14 15 15 15 15 15 15 15 15 16 16 16 18 19 20 21 21 21 21 21 21 21 21 21 22 23 23 23 23 22 18 17 23
10 9 8 7 9 10 12 13 13 13 14 15 15 15 15 15 15 15 15 16 16 16 18 20 20 20 20 20 20 20 20 20 19 16 16 21 23 23 23 23 22 17 23
10 10 10 8 10 11 12 12 13 13 14 15 15 15 16 16 16 16 16 16 16 17 19 20 20 20 20 20 20 20 20 19 17 13 14 16 19 23 23 23 23 24 24
11 10 10 10 10 11 12 12 12 13 14 14 15 16 16 16 16 16 16 16 17 18 20 20 20 20 20 20 20 20 20 19 15 12 14 15 16 22 23 23 23 24 24
10 10 10 10 11 12 12 12 13 13 14 14 15 15 16 17 17 17 17 17 18 19 20 20 20 20 20 20 20 20 19 17 13 15 15 16 16 21 23 23 23 23 23
10 10 11 9 11 12 12 12 13 13 14 14 15 15 16 17 17 17 17 18 18 19 20 20 20 20 20 20 20 19 18 15 14 15 15 15 15 20 22 23 22 23 23
10 9 11 9 10 10 11 12 13 13 13 14 14 15 16 17 17 17 18 18 19 19 20 20 20 20 20 20 20 19 18 14 15 15 15 16 18 22 23 23 23 23 24
10 9 9 8 8 9 9 10 11 12 13 14 14 15 16 16 17 17 18 18 19 19 20 20 20 21 21 21 21 19 16 12 15 16 16 16 19 22 23 23 24 24 24
9 9 9 10 9 8 8 9 10 11 11 12 13 14 13 14 16 16 16 18 19 19 20 20 20 20 21 21 21 20 16 14 15 13 15 13 19 22 23 23 24 24 25
8 8 8 8 9 9 9 9 9 10 11 11 12 12 12 13 14 13 14 17 19 19 20 20 20 21 21 20 19 17 12 13 15 15 12 14 20 23 23 24 24 24 25
8 8 8 8 7 7 8 9 9 10 11 12 12 13 11 11 11 10 14 15 18 19 19 20 20 20 19 18 17 14 11 10 14 11 11 17 21 23 23 24 24 24 25
12 10 7 7 7 7 5 7 8 8 10 10 10 12 8 8 8 10 13 14 15 17 19 18 17 14 11 9 10 9 8 12 11 11 12 19 21 22 23 23 23 24 24
14 11 8 7 6 6 5 5 5 5 6 8 10 10 8 8 8 8 7 9 10 11 11 12 9 7 8 7 7 8 9 9 8 9 13 18 20 21 22 23 23 23 24
14 13 10 8 7 7 6 5 5 5 5 6 8 10 8 6 7 7 5 7 6 5 7 7 7 9 10 10 10 10 10 8 8 8 12 18 20 21 22 22 22 23 23
14 13 11 9 9 7 6 5 6 6 7 7 8 9 10 7 8 7 6 6 6 6 7 8 9 10 10 10 10 10 11 11 10 9 9 18 19 20 21 21 21 21 22
15 14 11 11 9 9 8 7 7 7 7 7 7 10 11 8 8 8 7 7 7 7 7 8 10 9 8 8 10 10 10 9 9 9 9 12 19 20 20 20 20 20 20
15 13 12 11 10 10 10 10 7 7 7 7 7 9 10 9 10 9 8 7 7 8 10 9 10 9 9 9 10 9 8 9 9 9 8 7 10 17 19 19 19 19 19
14 14 12 9 11 11 10 9 7 7 7 6 6 7 10 10 11 9 8 8 9 9 9 9 9 9 9 8 8 7 7 7 8 8 8 7 6 7 14 19 19 19 19
15 14 14 13 12 11 10 8 7 6 7 6 6 6 8 10 11 10 9 9 11 9 9 9 9 9 10 9 8 7 6 6 6 7 8 8 8 7 7 12 16 18 18
15 14 14 14 13 11 9 7 5 6 5 5 5 6 9 9 11 10 8 11 11 10 9 9 11 10 9 10 9 8 6 5 5 6 6 6 6 7 7 7 7 10 16
16 16 16 16 15 12 9 9 7 7 6 5 4 6 9 10 11 11 10 11 11 11 12 14 13 14 10 10 9 7 6 5 5 4 4 5 6 6 6 7 6 5 6
18 18 18 18 17 16 12 9 6 6 5 4 4 5 7 9 11 10 13 12 11 11 13 15 15 10 9 9 7 7 6 5 4 3 4 4 5 4 5 6 6 6 5
18 19 17 18 18 17 14 9 5 4 3 4 6 6 7 9 10 10 13 12 12 13 14 16 17 13 12 9 6 6 6 7 6 5 4 4 4 4 4 4 5 5 5
17 15 17 17 18 17 16 14 15 12 12 12 8 7 8 8 9 10 11 12 13 12 14 16 16 12 14 11 6 4 2 5 7 7 6 5 4 4 4 3 3 4 4
14 14 15 16 18 18 18 18 17 15 12 9 9 10 9 8 9 9 10 11 12 11 13 16 15 13 12 11 8 5 4 3 4 5 7 7 6 4 4 3 2 2 2
11 12 14 16 18 18 19 18 19 18 15 13 13 12 9 7 7 10 10 10 11 10 13 15 14 15 11 11 8 6 6 5 6 4 5 7 6 5 4 3 3 2 1
Wind_Direction
173 171 168 177 142 128 117 108 100 95 90 86 83 82 81 79 78 77 76 77 77 79 82 82 80 77 73 70 68 67 65 64 62 63 64 61 59 57 54 50 50 50 49
156 161 157 168 145 133 121 113 105 98 92 88 85 84 82 81 80 79 78 80 81 83 85 83 81 78 75 72 70 68 67 65 63 61 66 66 60 59 58 55 54 54 52
151 153 155 154 142 133 125 118 110 103 96 91 88 85 83 82 81 81 82 83 84 86 86 84 82 79 77 74 72 70 67 65 62 55 63 66 63 60 60 58 56 55 54
150 153 151 142 139 134 129 123 116 109 101 95 90 87 85 84 83 84 84 85 87 88 87 85 83 81 79 76 74 72 69 65 58 58 65 64 64 62 61 60 58 57 56
151 152 142 144 139 137 135 130 124 117 109 101 95 90 88 87 86 87 87 87 88 88 87 86 84 82 81 79 77 74 71 68 61 66 67 66 65 64 63 62 61 59 58
152 152 145 147 144 142 141 137 131 125 117 108 101 96 93 91 90 90 90 89 89 88 86 86 85 84 82 80 78 74 70 65 69 67 65 63 64 65 64 63 62 60 58
154 153 150 147 146 146 146 143 140 133 125 117 110 103 99 96 95 94 93 92 91 90 89 88 87 86 84 82 78 74 70 62 68 68 65 62 62 63 63 62 62 60 58
157 155 151 142 145 149 149 146 143 139 133 126 119 111 106 102 100 98 98 96 95 94 93 91 90 88 86 83 79 74 65 59 72 69 67 64 62 63 62 62 61 60 58
161 160 160 161 160 154 152 149 146 144 139 133 125 116 107 104 102 100 101 102 100 98 96 94 93 91 88 85 80 75 64 59 71 68 66 63 64 65 64 62 61 60 59
167 169 169 168 171 171 168 159 154 151 146 137 127 118 110 107 104 103 105 106 105 103 100 98 95 92 88 84 79 72 61 67 69 67 64 65 66 67 66 65 63 61 60
176 175 176 174 176 178 176 165 166 159 151 143 135 131 136 129 121 114 105 108 109 107 104 101 98 95 91 82 75 68 63 71 71 66 62 63 67 67 67 65 63 62 60
187 182 180 182 179 183 179 180 180 174 167 167 158 156 151 136 121 115 102 103 106 108 106 103 101 100 95 90 78 68 71 73 71 67 59 61 67 68 68 66 64 63 61
191 184 186 185 186 188 186 189 185 181 176 175 168 164 154 140 134 131 125 118 118 119 112 111 104 91 86 82 80 77 77 75 73 69 56 58 65 68 68 67 65 63 60
196 193 188 189 194 195 196 197 192 188 183 179 176 171 163 155 154 149 145 141 136 125 122 112 101 95 91 87 85 83 80 78 77 75 57 54 63 66 68 68 66 63 61
203 199 195 194 198 195 197 200 200 198 193 187 181 180 175 166 161 155 147 144 138 132 127 119 112 106 100 93 88 86 83 81 83 82 70 57 61 64 65 65 64 63 61
207 203 198 200 201 200 203 205 205 203 198 193 186 186 182 173 164 158 150 146 140 135 127 123 120 113 104 99 94 89 88 88 85 86 84 69 61 61 62 63 62 61 59
208 206 202 203 203 206 210 210 209 205 200 197 191 188 185 177 169 161 154 149 142 135 130 124 119 114 111 108 101 93 87 84 87 85 84 79 71 62 59 60 59 58 56
209 206 204 200 204 207 210 209 207 206 202 199 190 186 183 177 170 161 154 151 146 142 140 136 133 127 122 118 109 99 93 90 85 85 83 80 74 70 63 58 55 54 54
210 207 204 202 204 204 203 204 204 201 200 195 187 184 181 175 170 163 157 151 151 147 146 142 139 137 131 123 112 103 97 93 93 91 87 80 75 73 72 65 57 49 49
209 208 206 203 203 196 191 190 191 194 196 193 191 188 179 173 169 160 153 155 154 150 149 148 141 137 132 128 116 102 95 99 100 98 96 91 83 79 74 67 60 52 46
206 206 205 203 198 191 187 188 191 197 191 191 193 189 183 173 169 163 155 160 162 160 157 153 144 140 139 137 125 116 105 103 107 109 109 107 99 89 80 70 60 52 46
205 205 205 205 199 196 195 192 194 183 185 185 176 187 186 177 173 169 164 166 167 158 155 156 152 146 155 169 154 150 151 157 150 128 129 123 119 113 93 78 69 56 46
210 207 205 204 200 198 192 181 153 143 149 176 192 191 189 183 178 176 173 167 170 166 165 167 167 162 168 180 195 180 171 169 153 160 156 153 144 136 120 102 82 62 47
214 208 207 204 202 198 191 191 189 193 198 199 189 181 179 185 183 180 176 173 174 175 172 174 178 176 171 174 185 222 240 147 157 155 171 172 166 156 145 134 113 82 48
211 206 205 204 203 200 197 199 202 206 207 191 178 176 178 182 186 182 179 177 179 179 176 176 179 181 181 181 174 165 162 155 160 156 162 171 177 175 166 157 148 119 69
204 201 201 204 205 203 202 202 205 206 200 187 184 181 180 179 184 185 182 184 183 181 180 181 180 183 184 186 180 174 169 168 172 164 154 163 170 166 176 182 184 169 109